Flag for Germany Weather past 2 weeks in Bad Kreuznach, Rhineland-Palatinate, Germany

Now
48 °F

Fog.


Feels Like: 48 °F
Forecast: 48 / 61 °F
Wind: 2 mph from East

Location: Wiesbaden Airport

Current Time: Oct 25, 2014 at 8:31:52 AM

Latest Report: Oct 25, 2014 at 7:58 AM


Visibility: 6 mi

Pressure: 30.11 "Hg

Humidity: 99%

Dew point: 48 °F

Location of Bad KreuznachLocation

Historic Weather in Bad Kreuznach — Graph

°F

Bad Kreuznach temperature yesterday

Maximum temperature yesterday: 54 °F (at 4:58 PM)
Minimum temperature yesterday: 39 °F (at 3:58 AM)
Average temperature yesterday: 46 °F

Past Weeks' High & Low Weather Summary

 TemperatureHumidityPressure
High72 °F (Oct 19, 3:58 PM)100% (Oct 10, 6:58 AM)30.28 "Hg (Oct 10, 6:58 AM)
Low39 °F (Oct 24, 3:58 AM)59% (Oct 15, 3:58 PM)29.58 "Hg (Oct 21, 5:58 PM)
Average55 °F90%29.97 "Hg
* Reported Oct 10 6:58 AM — Oct 25 6:58 AM, Bad Kreuznach, Weather by CustomWeather, © 2014

Note: Actual official high and low records may vary slightly from our data, if they occured in-between our weather recording intervals... More about our weather records

Advertising

Bad Kreuznach weather history for previous 24 hours

 ConditionsComfort  
Time TempWeatherWind HumidityBarometerVisibility
6:58 AM
Oct 25
48 °FPartly cloudy.2 mph100%30.11 "HgN/A
5:58 AM49 °FLight rain. Passing clouds.1 mph96%30.10 "HgN/A
4:58 AM48 °FOvercast.2 mph94%30.10 "HgN/A
3:58 AM50 °FOvercast.2 mph88%30.10 "HgN/A
2:58 AM50 °FOvercast.2 mph88%30.11 "HgN/A
1:58 AM50 °FMostly cloudy.2 mph88%30.12 "HgN/A
12:58 AM49 °FPassing clouds.5 mph91%30.12 "HgN/A
11:58 PM
Oct 24
49 °FPassing clouds.No wind93%30.13 "HgN/A
11:02 PM48 °FPassing clouds.3 mph94%30.12 "HgN/A
10:04 PM48 °FPartly cloudy.2 mph94%30.12 "HgN/A
9:58 PM48 °FPassing clouds.3 mph94%30.14 "HgN/A
8:58 PM47 °FPassing clouds.No wind91%30.14 "HgN/A
7:58 PM49 °FPassing clouds.2 mph94%30.14 "HgN/A
6:58 PM52 °FBroken clouds.1 mph79%30.13 "HgN/A
5:58 PM52 °FPassing clouds.2 mph82%30.14 "HgN/A
4:58 PM54 °FSunny.2 mph76%30.15 "HgN/A
3:58 PM54 °FSunny.2 mph77%30.16 "HgN/A
2:58 PM54 °FSunny.3 mph75%30.18 "HgN/A
1:58 PM50 °FScattered clouds.1 mph100%30.21 "HgN/A
12:58 PM46 °FFog.No wind100%30.24 "Hg4 mi
12:03 PM45 °FFog.No wind100%30.23 "Hg4 mi
11:58 AM45 °FFog.2 mph100%30.24 "Hg3 mi
10:59 AM45 °FFog.No wind100%30.23 "Hg0 mi
10:58 AM43 °FQuite cool.1 mph100%30.24 "HgN/A
10:02 AM43 °FQuite cool.1 mph100%30.24 "HgN/A
9:58 AM42 °FQuite cool.No wind99%30.26 "HgN/A
8:58 AM42 °FQuite cool.2 mph99%30.24 "HgN/A
Weather by CustomWeather, © 2014

See weather overviewHow to use our weather pages